Weather History for Washington, GA

Change the Weather History Date:

Saturday, November 2, 2013

  Actual Average (KDBN) Record (KDBN)
Temperature  
Mean Temperature 63 °F -  
Max Temperature 73 °F 75 °F 89 °F (1961)
Min Temperature 53 °F 49 °F 27 °F (1930)
Degree Days  
Heating Degree Days 2    
Growing Degree Days 13 (Base 50)    
Moisture  
Dew Point 47 °F    
Average Humidity 66    
Maximum Humidity 100    
Minimum Humidity 33    
Precipitation  
Precipitation 0.00 in - - ()
Sea Level Pressure  
Sea Level Pressure 29.88 in    
Wind  
Wind Speed 7 mph (WNW)    
Max Wind Speed 14 mph    
Max Gust Speed 21 mph    
Visibility 10 miles    
Events      
Averages and records for this station are not official NWS values.
T = Trace of Precipitation, MM = Missing Value Source: NWS Daily Summary

Daily Weather History Graph

Daily Weather History Graph

Search for Another Location

Airport:

Trip Planner

Search our weather history database for the weather conditions in past years. The results will help you decide how hot, cold, wet, or windy it might be!

Date:

Astronomy

Nov. 02, 2013 Rise Set
Actual Time 7:51 AM EDT 6:37 PM EDT
Civil Twilight 7:25 AM EDT 7:03 PM EDT
Nautical Twilight 6:56 AM EDT 7:32 PM EDT
Astronomical Twilight 6:26 AM EDT 8:02 PM EDT
Moon 6:49 AM EDT (11/2) 6:07 PM EDT (11/2)
Length of Visible Light 11h 37m
Length of Day
10h 46m
Waning Crescent, 1% of the Moon is Illuminated
Nov 2
Waning Crescent
Nov 3
New
Nov 10
First Quarter
Nov 17
Full
Nov 25
Last Quarter

Hourly Weather History & Observations

Time (EDT) Temp. Dew Point Humidity Pressure Visibility Wind Dir Wind Speed Gust Speed Precip Events Conditions
12:15 AM 60.8 °F - N/A% 29.80 in 4.0 mi SW 5.8 mph - N/A   Haze
12:35 AM 60.8 °F - N/A% 29.80 in 4.0 mi SW 4.6 mph - N/A   Haze
12:55 AM 59.0 °F - N/A% 29.80 in 5.0 mi WSW 3.5 mph - N/A   Haze
1:15 AM 59.0 °F - N/A% 29.80 in 7.0 mi WSW 4.6 mph - N/A   Clear
1:35 AM 59.0 °F 59.0 °F 100% 29.80 in 10.0 mi West 6.9 mph - N/A   Clear
1:55 AM 59.0 °F 59.0 °F 100% 29.81 in 10.0 mi West 6.9 mph - N/A   Clear
2:15 AM 59.0 °F 59.0 °F 100% 29.81 in 10.0 mi West 8.1 mph - N/A   Clear
2:35 AM 59.0 °F 59.0 °F 100% 29.81 in 10.0 mi West 6.9 mph - N/A   Clear
2:55 AM 59.0 °F 59.0 °F 100% 29.81 in 10.0 mi WNW 5.8 mph - N/A   Clear
3:15 AM 57.2 °F 55.4 °F 94% 29.81 in 10.0 mi WNW 5.8 mph - N/A   Clear
3:35 AM 55.4 °F 55.4 °F 100% 29.82 in 10.0 mi WNW 4.6 mph - N/A   Clear
3:55 AM 53.6 °F 53.6 °F 100% 29.82 in 10.0 mi West 5.8 mph - N/A   Clear
4:15 AM 53.6 °F 53.6 °F 100% 29.82 in 10.0 mi West 4.6 mph - N/A   Clear
4:35 AM 53.6 °F 53.6 °F 100% 29.82 in 10.0 mi West 5.8 mph - N/A   Clear
4:55 AM 53.6 °F 53.6 °F 100% 29.82 in 10.0 mi WNW 5.8 mph - N/A   Clear
5:15 AM 53.6 °F 53.6 °F 100% 29.82 in 10.0 mi WNW 5.8 mph - N/A   Clear
5:35 AM 53.6 °F 53.6 °F 100% 29.82 in 10.0 mi WNW 6.9 mph - N/A   Clear
5:55 AM 53.6 °F 51.8 °F 94% 29.82 in 10.0 mi WNW 6.9 mph - N/A   Clear
6:15 AM 53.6 °F 51.8 °F 94% 29.83 in 10.0 mi WNW 6.9 mph - N/A   Clear
6:35 AM 53.6 °F 51.8 °F 94% 29.83 in 10.0 mi WNW 6.9 mph - N/A   Clear
6:55 AM 53.6 °F 51.8 °F 94% 29.84 in 10.0 mi WNW 5.8 mph - N/A   Clear
7:15 AM 53.6 °F 51.8 °F 94% 29.85 in 10.0 mi WNW 5.8 mph - N/A   Clear
7:35 AM 53.6 °F 51.8 °F 94% 29.85 in 10.0 mi WNW 5.8 mph - N/A   Clear
7:55 AM 53.6 °F 51.8 °F 94% 29.86 in 10.0 mi WNW 6.9 mph - N/A   Clear
8:15 AM 53.6 °F 51.8 °F 94% 29.86 in 10.0 mi WNW 5.8 mph - N/A   Clear
8:35 AM 53.6 °F 51.8 °F 94% 29.86 in 10.0 mi WNW 5.8 mph - N/A   Clear
8:55 AM 53.6 °F 50.0 °F 88% 29.87 in 10.0 mi WNW 5.8 mph - N/A   Clear
9:15 AM 57.2 °F 50.0 °F 77% 29.89 in 10.0 mi WNW 8.1 mph - N/A   Clear
9:35 AM 59.0 °F 51.8 °F 77% 29.89 in 10.0 mi WNW 6.9 mph - N/A   Clear
9:55 AM 59.0 °F 50.0 °F 72% 29.90 in 10.0 mi WNW 6.9 mph - N/A   Clear
10:15 AM 60.8 °F 50.0 °F 68% 29.90 in 10.0 mi WNW 6.9 mph - N/A   Clear
10:35 AM 62.6 °F 50.0 °F 63% 29.90 in 10.0 mi WNW 8.1 mph - N/A   Clear
10:55 AM 64.4 °F 50.0 °F 59% 29.90 in 10.0 mi WNW 6.9 mph - N/A   Clear
11:15 AM 64.4 °F 46.4 °F 52% 29.89 in 10.0 mi WNW 6.9 mph - N/A   Clear
11:35 AM 66.2 °F 46.4 °F 49% 29.90 in 10.0 mi WNW 5.8 mph - N/A   Clear
11:55 AM 66.2 °F 46.4 °F 49% 29.90 in 10.0 mi NW 6.9 mph - N/A   Clear
1:15 PM 69.8 °F 41.0 °F 35% 29.89 in 10.0 mi WSW 9.2 mph - N/A   Clear
1:35 PM 71.6 °F 42.8 °F 35% 29.89 in 10.0 mi West 12.7 mph 17.3 mph N/A   Clear
1:55 PM 71.6 °F 42.8 °F 35% 29.87 in 10.0 mi West 9.2 mph 17.3 mph N/A   Clear
2:15 PM 71.6 °F 42.8 °F 35% 29.86 in 10.0 mi West 10.4 mph 18.4 mph N/A   Clear
2:35 PM 73.4 °F 42.8 °F 33% 29.86 in 10.0 mi West 13.8 mph 18.4 mph N/A   Clear
2:55 PM 71.6 °F 42.8 °F 35% 29.86 in 10.0 mi West 9.2 mph - N/A   Clear
3:15 PM 69.8 °F 41.0 °F 35% 29.85 in 10.0 mi West 12.7 mph 18.4 mph N/A   Clear
3:35 PM 71.6 °F 44.6 °F 38% 29.85 in 10.0 mi West 12.7 mph - N/A   Clear
3:55 PM 68.0 °F 41.0 °F 37% 29.85 in 10.0 mi WNW 10.4 mph 18.4 mph N/A   Clear
4:15 PM 69.8 °F 42.8 °F 38% 29.85 in 10.0 mi West 9.2 mph - N/A   Clear
4:35 PM 71.6 °F 41.0 °F 33% 29.85 in 10.0 mi West 12.7 mph 20.7 mph N/A   Clear
4:55 PM 69.8 °F 39.2 °F 33% 29.85 in 10.0 mi WNW 12.7 mph 20.7 mph N/A   Clear
5:15 PM 69.8 °F 41.0 °F 35% 29.85 in 10.0 mi WNW 9.2 mph - N/A   Clear
5:35 PM 68.0 °F 37.4 °F 33% 29.86 in 10.0 mi West 10.4 mph 17.3 mph N/A   Clear
5:55 PM 68.0 °F 37.4 °F 33% 29.86 in 10.0 mi West 10.4 mph - N/A   Clear
6:15 PM 66.2 °F 39.2 °F 37% 29.87 in 10.0 mi WNW 5.8 mph - N/A   Clear
6:35 PM 64.4 °F 41.0 °F 42% 29.88 in 10.0 mi WNW 5.8 mph - N/A   Clear
6:55 PM 62.6 °F 41.0 °F 45% 29.89 in 10.0 mi WNW 6.9 mph - N/A   Clear
7:15 PM 62.6 °F 42.8 °F 48% 29.90 in 10.0 mi WNW 6.9 mph - N/A   Clear
7:35 PM 60.8 °F 42.8 °F 52% 29.92 in 10.0 mi WNW 5.8 mph - N/A   Clear
7:55 PM 59.0 °F 42.8 °F 55% 29.94 in 10.0 mi NW 4.6 mph - N/A   Clear
8:15 PM 59.0 °F 42.8 °F 55% 29.94 in 10.0 mi NW 5.8 mph - N/A   Clear
8:35 PM 59.0 °F 42.8 °F 55% 29.95 in 10.0 mi NW 5.8 mph - N/A   Clear
8:55 PM 59.0 °F 42.8 °F 55% 29.96 in 10.0 mi NW 5.8 mph - N/A   Clear
9:15 PM 59.0 °F 44.6 °F 59% 29.97 in 10.0 mi NW 5.8 mph - N/A   Clear
9:35 PM 59.0 °F 42.8 °F 55% 29.98 in 10.0 mi NW 6.9 mph - N/A   Clear
9:55 PM 57.2 °F 42.8 °F 59% 29.99 in 10.0 mi NW 5.8 mph - N/A   Clear
10:15 PM 55.4 °F 41.0 °F 58% 30.00 in 10.0 mi NW 6.9 mph - N/A   Clear
10:35 PM 55.4 °F 41.0 °F 58% 30.01 in 10.0 mi NW 5.8 mph - N/A   Clear
10:55 PM 53.6 °F 41.0 °F 62% 30.02 in 10.0 mi NW 6.9 mph - N/A   Clear
11:15 PM 53.6 °F 41.0 °F 62% 30.03 in 10.0 mi NW 5.8 mph - N/A   Clear
11:35 PM 53.6 °F 42.8 °F 67% 30.03 in 10.0 mi NW 6.9 mph - N/A   Clear
11:55 PM 53.6 °F 42.8 °F 67% 30.03 in 10.0 mi NW 4.6 mph - N/A   Clear